College Station, AR

7:59 AM CST on December 11, 2016 (GMT -0600)
Adams

Weather History for KLIT - August, 2013

Change the Weather History Date:

Saturday, August 3, 2013

  Actual Average Record
Temperature  
Mean Temperature 83 °F 83 °F  
Max Temperature 91 °F 93 °F 114 °F (2011)
Min Temperature 75 °F 73 °F 60 °F (1976)
Degree Days  
Heating Degree Days 0 0  
Month to date heating degree days 0 0  
Since 1 June heating degree days 0 0  
Since 1 July heating degree days 0 0  
Cooling Degree Days 18 18  
Month to date cooling degree days 52 54  
Year to date cooling degree days 1249 1313  
Since 1 June cooling degree days 988 1032  
Growing Degree Days 34 (Base 50)    
Moisture  
Dew Point 72 °F    
Average Humidity 68    
Maximum Humidity 85    
Minimum Humidity 50    
Precipitation  
Precipitation T in 0.08 in 3.75 in (1971)
Month to date precipitation T 0.24  
Year to date precipitation 31.04 29.06  
Snow  
Snow 0.00 in 0.00 in - ()
Month to date snowfall 0.0 0.0  
Since 1 June snowfall 0.0 0.0  
Since 1 July snowfall 0.0 0.0  
Snow Depth 0.00 in    
Sea Level Pressure  
Sea Level Pressure 30.03 in    
Wind  
Wind Speed 6 mph (WNW)    
Max Wind Speed 23 mph    
Max Gust Speed 29 mph    
Visibility 9 miles    
Events Rain    
T = Trace of Precipitation, MM = Missing Value Source: NWS Daily Summary

Daily Weather History Graph

Daily Weather History Graph

Search for Another Location

Airport or City:

Trip Planner

Search our weather history database for the weather conditions in past years. The results will help you decide how hot, cold, wet, or windy it might be!

Date:

Astronomy

Aug. 03, 2013 Rise Set
Actual Time 6:20 AM CDT 8:09 PM CDT
Civil Twilight 5:53 AM CDT 8:36 PM CDT
Nautical Twilight 5:19 AM CDT 9:09 PM CDT
Astronomical Twilight 4:44 AM CDT 9:44 PM CDT
Moon 3:31 AM CDT (8/3) 5:50 PM CDT (8/3)
Length of Visible Light 14h 43m
Length of Day
13h 48m
Waning Crescent, 9% of the Moon is Illuminated
Aug 3
Waning Crescent
Aug 6
New
Aug 14
First Quarter
Aug 20
Full
Aug 28
Last Quarter

Hourly Weather History & Observations

Time (CDT) Temp. Heat Index Dew Point Humidity Pressure Visibility Wind Dir Wind Speed Gust Speed Precip Events Conditions
12:53 AM 80.1 °F 85.1 °F 75.0 °F 85% 29.99 in 7.0 mi South 6.9 mph - N/A   Partly Cloudy
1:53 AM 80.1 °F 84.5 °F 73.9 °F 81% 29.99 in 7.0 mi SSW 8.1 mph - N/A   Scattered Clouds
2:53 AM 79.0 °F - 73.9 °F 84% 29.99 in 7.0 mi SSW 5.8 mph - N/A   Scattered Clouds
3:53 AM 81.0 °F 85.2 °F 72.0 °F 74% 29.99 in 7.0 mi SW 6.9 mph - N/A   Scattered Clouds
4:53 AM 80.1 °F 84.2 °F 73.0 °F 79% 29.98 in 7.0 mi SW 8.1 mph - N/A   Scattered Clouds
5:53 AM 79.0 °F - 73.0 °F 82% 29.96 in 7.0 mi SW 9.2 mph - N/A   Mostly Cloudy
6:53 AM 79.0 °F - 73.9 °F 84% 29.98 in 6.0 mi SW 4.6 mph - N/A   Overcast
7:53 AM 80.1 °F 84.5 °F 73.9 °F 81% 30.01 in 6.0 mi West 4.6 mph - N/A   Overcast
8:53 AM 82.0 °F 87.9 °F 73.9 °F 76% 30.06 in 7.0 mi WNW 9.2 mph - N/A   Overcast
9:15 AM 82.4 °F 88.2 °F 73.4 °F 74% 30.04 in 7.0 mi WNW 10.4 mph - 0.00 in Rain Light Rain
9:53 AM 79.0 °F - 69.1 °F 72% 30.11 in 7.0 mi NNW 15.0 mph 21.9 mph 0.00 in   Overcast
10:53 AM 79.0 °F - 69.1 °F 72% 30.11 in 10.0 mi NW 12.7 mph - N/A   Overcast
11:53 AM 82.9 °F 88.0 °F 72.0 °F 69% 30.06 in 10.0 mi North 9.2 mph - N/A   Mostly Cloudy
12:53 PM 84.9 °F 90.1 °F 71.1 °F 63% 30.04 in 10.0 mi NW 6.9 mph - N/A   Mostly Cloudy
1:53 PM 86.0 °F 90.1 °F 69.1 °F 57% 30.02 in 10.0 mi Calm Calm - N/A   Mostly Cloudy
2:53 PM 86.0 °F 90.1 °F 69.1 °F 57% 30.01 in 10.0 mi SSW 4.6 mph - N/A   Mostly Cloudy
3:53 PM 90.0 °F 93.6 °F 68.0 °F 48% 30.01 in 10.0 mi North 3.5 mph - N/A   Mostly Cloudy
4:53 PM 89.1 °F 92.9 °F 68.0 °F 50% 30.01 in 10.0 mi North 8.1 mph - N/A   Mostly Cloudy
5:53 PM 89.1 °F 95.0 °F 71.1 °F 55% 30.01 in 10.0 mi ENE 4.6 mph - N/A   Mostly Cloudy
6:53 PM 86.0 °F 93.0 °F 73.0 °F 65% 30.02 in 10.0 mi East 8.1 mph - N/A   Mostly Cloudy
7:53 PM 82.0 °F 87.4 °F 73.0 °F 74% 30.04 in 10.0 mi ENE 9.2 mph - N/A   Mostly Cloudy
8:53 PM 80.1 °F 84.2 °F 73.0 °F 79% 30.05 in 10.0 mi ENE 5.8 mph - N/A   Mostly Cloudy
9:53 PM 78.1 °F - 73.0 °F 84% 30.07 in 10.0 mi NE 5.8 mph - N/A   Scattered Clouds
10:53 PM 78.1 °F - 72.0 °F 81% 30.08 in 10.0 mi Calm Calm - N/A   Scattered Clouds
11:53 PM 77.0 °F - 72.0 °F 84% 30.09 in 10.0 mi Calm Calm - N/A   Partly Cloudy